Fort Campbell, KY

2:07 PM CDT on July 22, 2017 (GMT -0500)
Campbell Army Air Field

Weather History for KHOP - May, 2013

Change the Weather History Date:

Sunday, May 5, 2013

  Actual Average Record
Temperature  
Mean Temperature 51 °F -  
Max Temperature 58 °F 74 °F 87 °F (2012)
Min Temperature 44 °F 54 °F 41 °F (2011)
Degree Days  
Heating Degree Days 14    
Growing Degree Days 1 (Base 50)    
Moisture  
Dew Point 50 °F    
Average Humidity 95    
Maximum Humidity 100    
Minimum Humidity 77    
Precipitation  
Precipitation 0.01 in - - ()
Sea Level Pressure  
Sea Level Pressure 29.87 in    
Wind  
Wind Speed 5 mph (NW)    
Max Wind Speed 12 mph    
Max Gust Speed -    
Visibility 10 miles    
Events      
Averages and records for this station are not official NWS values.
T = Trace of Precipitation, MM = Missing Value Source: NWS Daily Summary

Daily Weather History Graph

Daily Weather History Graph

Search for Another Location

Airport or City:

Trip Planner

Search our weather history database for the weather conditions in past years. The results will help you decide how hot, cold, wet, or windy it might be!

Date:

Astronomy

May. 05, 2013 Rise Set
Actual Time 5:51 AM CDT 7:42 PM CDT
Civil Twilight 5:23 AM CDT 8:10 PM CDT
Nautical Twilight 4:49 AM CDT 8:44 PM CDT
Astronomical Twilight 4:13 AM CDT 9:20 PM CDT
Moon 3:15 AM CDT (5/5) 3:47 PM CDT (5/5)
Length of Visible Light 14h 46m
Length of Day
13h 50m
Waning Crescent, 18% of the Moon is Illuminated
May 5
Waning Crescent
May 9
New
May 17
First Quarter
May 24
Full
May 31
Last Quarter

Hourly Weather History & Observations

Time (CDT) Temp. Windchill Dew Point Humidity Pressure Visibility Wind Dir Wind Speed Gust Speed Precip Events Conditions
12:00 AM 46.4 °F 43.5 °F 46.4 °F 100% 29.94 in 10.0 mi NE 5.8 mph - N/A   Mostly Cloudy
12:03 AM 46.4 °F 44.3 °F 46.4 °F 100% 29.94 in 10.0 mi NNE 4.6 mph - N/A   Mostly Cloudy
12:31 AM 46.4 °F 43.5 °F 46.4 °F 100% 29.92 in 10.0 mi North 5.8 mph - N/A   Light Drizzle
12:41 AM 46.4 °F 45.2 °F 46.4 °F 100% 29.93 in 10.0 mi NNE 3.5 mph - N/A   Mostly Cloudy
12:58 AM 45.7 °F 43.4 °F 45.7 °F 100% 29.95 in 10.0 mi NE 4.6 mph - 0.00 in   Mostly Cloudy
1:01 AM 46.4 °F 44.3 °F 46.4 °F 100% 29.93 in 10.0 mi NNE 4.6 mph - N/A   Mostly Cloudy
1:10 AM 46.4 °F - 46.4 °F 100% 29.92 in 10.0 mi NNW 2.3 mph - N/A   Mostly Cloudy
1:40 AM 44.6 °F 42.2 °F 44.6 °F 100% 29.91 in 10.0 mi NNW 4.6 mph - N/A   Scattered Clouds
1:58 AM 45.5 °F 42.5 °F 45.5 °F 100% 29.90 in 10.0 mi WNW 5.8 mph - N/A   Scattered Clouds
2:38 AM 44.6 °F 43.1 °F 44.6 °F 100% 29.89 in 10.0 mi NW 3.5 mph - N/A   Mostly Cloudy
2:58 AM 45.3 °F 44.0 °F 45.3 °F 100% 29.90 in 10.0 mi WNW 3.5 mph - N/A   Overcast
3:07 AM 46.4 °F 44.3 °F 46.4 °F 100% 29.89 in 10.0 mi West 4.6 mph - N/A   Overcast
3:43 AM 46.4 °F 43.5 °F 46.4 °F 100% 29.88 in 10.0 mi WNW 5.8 mph - N/A   Overcast
3:58 AM 45.5 °F 41.8 °F 45.5 °F 100% 29.89 in 10.0 mi WNW 6.9 mph - N/A   Overcast
4:11 AM 44.6 °F 40.7 °F 44.6 °F 100% 29.87 in 10.0 mi WNW 6.9 mph - N/A   Overcast
4:16 AM 44.6 °F 41.4 °F 44.6 °F 100% 29.87 in 10.0 mi NW 5.8 mph - N/A   Overcast
4:32 AM 44.6 °F 42.2 °F 44.6 °F 100% 29.88 in 10.0 mi West 4.6 mph - N/A   Overcast
4:34 AM 44.6 °F 41.4 °F 44.6 °F 100% 29.88 in 10.0 mi West 5.8 mph - N/A   Overcast
4:58 AM 45.1 °F 41.4 °F 45.1 °F 100% 29.90 in 10.0 mi WSW 6.9 mph - N/A   Overcast
5:31 AM 44.6 °F 41.4 °F 44.6 °F 100% 29.87 in 10.0 mi West 5.8 mph - N/A   Overcast
5:58 AM 45.3 °F 43.0 °F 45.3 °F 100% 29.89 in 10.0 mi West 4.6 mph - N/A   Overcast
5:59 AM 44.6 °F 42.2 °F 44.6 °F 100% 29.88 in 10.0 mi West 4.6 mph - N/A   Overcast
6:58 AM 45.9 °F 42.9 °F 45.9 °F 100% 29.89 in 10.0 mi West 5.8 mph - N/A   Overcast
7:27 AM 46.4 °F 43.5 °F 46.4 °F 100% 29.87 in 10.0 mi WNW 5.8 mph - N/A   Overcast
7:58 AM 47.1 °F - 47.1 °F 100% 29.88 in 10.0 mi NW 5.8 mph - N/A   Overcast
8:02 AM 46.4 °F 42.9 °F 46.4 °F 100% 29.87 in 10.0 mi NW 6.9 mph - N/A   Overcast
8:58 AM 48.7 °F - 48.7 °F 100% 29.87 in 10.0 mi NW 5.8 mph - N/A   Overcast
9:24 AM 50.0 °F - 50.0 °F 100% 29.87 in 10.0 mi WNW 4.6 mph - N/A   Overcast
9:54 AM 50.0 °F - 50.0 °F 100% 29.88 in 10.0 mi NW 4.6 mph - N/A   Overcast
9:58 AM 49.8 °F - 49.8 °F 100% 29.89 in 10.0 mi WNW 4.6 mph - N/A   Overcast
10:31 AM 50.0 °F - 50.0 °F 100% 29.87 in 10.0 mi WNW 5.8 mph - N/A   Overcast
10:58 AM 51.3 °F - 51.3 °F 100% 29.89 in 10.0 mi WNW 4.6 mph - N/A   Overcast
11:09 AM 51.8 °F - 51.8 °F 100% 29.88 in 10.0 mi West 3.5 mph - N/A   Overcast
11:49 AM 53.6 °F - 53.6 °F 100% 29.87 in 10.0 mi West 3.5 mph - N/A   Overcast
11:58 AM 53.8 °F - 52.5 °F 95% 29.88 in 10.0 mi Variable 2.3 mph - N/A   Overcast
12:41 PM 55.4 °F - 51.8 °F 88% 29.85 in 10.0 mi WNW 4.6 mph - N/A   Overcast
12:48 PM 55.4 °F - 51.8 °F 88% 29.85 in 10.0 mi WNW 5.8 mph - N/A   Overcast
12:56 PM 55.4 °F - 53.6 °F 94% 29.85 in 10.0 mi Variable 3.5 mph - N/A   Overcast
12:57 PM 57.2 °F - 53.6 °F 88% 29.85 in 10.0 mi Variable 4.6 mph - N/A   Overcast
12:58 PM 57.2 °F - 53.6 °F 88% 29.86 in 10.0 mi WNW 5.8 mph - N/A   Overcast
1:01 PM 57.2 °F - 51.8 °F 82% 29.85 in 10.0 mi NW 4.6 mph - N/A   Mostly Cloudy
1:10 PM 57.2 °F - 50.0 °F 77% 29.85 in 10.0 mi West 4.6 mph - N/A   Overcast
1:58 PM 56.8 °F - 51.6 °F 83% 29.86 in 10.0 mi NW 4.6 mph - N/A   Overcast
2:50 PM 57.2 °F - 50.0 °F 77% 29.84 in 10.0 mi WNW 4.6 mph - N/A   Overcast
2:58 PM 57.2 °F - 50.9 °F 79% 29.85 in 10.0 mi WNW 4.6 mph - N/A   Overcast
3:44 PM 57.2 °F - 51.8 °F 82% 29.84 in 10.0 mi West 10.4 mph - N/A   Overcast
3:58 PM 57.2 °F - 50.7 °F 79% 29.85 in 10.0 mi WNW 8.1 mph - N/A   Overcast
4:00 PM 57.2 °F - 51.8 °F 82% 29.84 in 10.0 mi WNW 8.1 mph - N/A   Light Drizzle
4:28 PM 55.4 °F - 53.6 °F 94% 29.84 in 10.0 mi WNW 6.9 mph - N/A   Overcast
4:47 PM 55.4 °F - 53.6 °F 94% 29.84 in 10.0 mi WNW 6.9 mph - N/A   Overcast
4:58 PM 56.7 °F - 53.4 °F 89% 29.85 in 10.0 mi NW 5.8 mph - 0.01 in   Mostly Cloudy
5:05 PM 57.2 °F - 53.6 °F 88% 29.84 in 10.0 mi WNW 6.9 mph - N/A   Overcast
5:11 PM 57.2 °F - 53.6 °F 88% 29.84 in 10.0 mi NW 4.6 mph - N/A   Overcast
5:14 PM 57.2 °F - 53.6 °F 88% 29.84 in 10.0 mi NW 4.6 mph - N/A   Overcast
5:20 PM 57.2 °F - 55.4 °F 94% 29.84 in 10.0 mi WNW 4.6 mph - N/A   Overcast
5:58 PM 58.1 °F - 52.5 °F 82% 29.84 in 10.0 mi WNW 11.5 mph - N/A   Scattered Clouds
6:58 PM 56.5 °F - 53.1 °F 88% 29.85 in 10.0 mi NW 4.6 mph - N/A   Overcast
7:58 PM 55.6 °F - 53.2 °F 92% 29.86 in 10.0 mi NNW 3.5 mph - N/A   Overcast
8:58 PM 54.3 °F - 54.0 °F 99% 29.86 in 10.0 mi NW 2.3 mph - N/A   Mostly Cloudy
9:58 PM 53.4 °F - 53.4 °F 100% 29.85 in 10.0 mi NW 6.9 mph - N/A   Mostly Cloudy
10:04 PM 53.6 °F - 53.6 °F 100% 29.85 in 10.0 mi NW 6.9 mph - N/A   Overcast
10:17 PM 53.6 °F - 53.6 °F 100% 29.85 in 10.0 mi NW 6.9 mph - N/A   Overcast
10:23 PM 53.6 °F - 53.6 °F 100% 29.85 in 10.0 mi NW 5.8 mph - N/A   Overcast
10:24 PM 53.6 °F - 53.6 °F 100% 29.85 in 10.0 mi NW 5.8 mph - N/A   Overcast
10:32 PM 53.6 °F - 53.6 °F 100% 29.84 in 10.0 mi NW 8.1 mph - N/A   Overcast
10:58 PM 53.4 °F - 53.4 °F 100% 29.83 in 10.0 mi WNW 8.1 mph - N/A   Overcast
11:17 PM 53.6 °F - 53.6 °F 100% 29.84 in 10.0 mi WNW 4.6 mph - N/A   Overcast
11:54 PM 53.6 °F - 53.6 °F 100% 29.83 in 10.0 mi WNW 6.9 mph - N/A   Overcast
11:58 PM 53.6 °F - 53.6 °F 100% 29.83 in 10.0 mi WNW 6.9 mph - N/A   Overcast